Date String (YYYY-MM-DD hh:mm:ss) UTC,Instrument flags,Ambient pressure (hPa),Sample flow (lpm),Bypass flow (lpm),Sample temperature (°C),Ambient temperature (°C),ASC tube jacket temperature (°C),LED temperature (°C),Box temperature (°C),Sample RH (%),Span deviation,Mass concentration (μg/m³),Mass concentration (μg/m³),Mass concentration (μg/m³)
DateTimeUTC,F1_M11,P_M11,Q1_M11,Q2_M11,T1_M11,T2_M11,T3_M11,T4_M11,T5_M11,U1_M11,ZSPAN_M11,X0_M11,X2_M11,X1_M11
2022-01-30 04:00:00,,0827.5,5.00,0.00,25.7,25.0,00.0,34.7,27.5,06.3,0000.0,0014.01,0009.94,0009.49
2022-01-30 04:01:00,,0827.5,5.02,0.00,25.7,25.0,00.0,34.7,27.5,06.2,0000.0,0013.90,0009.93,0009.47
2022-01-30 04:02:00,,0827.5,4.99,0.00,25.7,25.0,00.0,34.7,27.5,05.9,0000.0,0013.73,0009.84,0009.41
2022-01-30 04:03:00,,0827.6,5.00,0.00,25.7,25.0,00.0,34.7,27.5,05.9,0000.0,0013.64,0009.75,0009.30
2022-01-30 04:04:00,,0827.7,5.00,0.00,25.7,25.0,00.0,34.7,27.5,05.7,0000.0,0013.26,0009.62,0009.19
2022-01-30 04:05:00,,0827.7,5.00,0.00,25.7,25.0,00.0,34.7,27.5,05.6,0000.0,0013.03,0009.49,0009.03
2022-01-30 04:06:00,,0827.7,4.99,0.00,25.7,25.0,00.0,34.7,27.6,05.7,0000.0,0012.96,0009.38,0008.91
2022-01-30 04:07:00,,0827.7,4.99,0.00,25.7,25.0,00.0,34.7,27.6,05.7,0000.0,0012.83,0009.29,0008.83
2022-01-30 04:08:00,,0827.7,5.00,0.00,25.7,25.0,00.0,34.7,27.6,05.7,0000.0,0012.46,0009.17,0008.73
2022-01-30 04:09:00,,0827.6,5.00,0.00,25.7,25.0,00.0,34.7,27.5,05.6,0000.0,0012.26,0009.06,0008.62
2022-01-30 04:10:00,,0827.7,4.99,0.00,25.7,25.0,00.0,34.7,27.5,05.7,0000.0,0011.99,0008.91,0008.49
2022-01-30 04:11:00,,0827.6,5.01,0.00,25.7,24.9,00.0,34.7,27.5,05.7,0000.0,0011.82,0008.78,0008.39
2022-01-30 04:12:00,,0827.6,4.99,0.00,25.7,24.9,00.0,34.7,27.4,05.7,0000.0,0011.80,0008.68,0008.30
2022-01-30 04:13:00,,0827.5,4.99,0.00,25.6,24.9,00.0,34.7,27.4,05.8,0000.0,0011.73,0008.61,0008.23
2022-01-30 04:14:00,,0827.5,4.99,0.00,25.6,24.8,00.0,34.6,27.4,05.8,0000.0,0011.78,0008.63,0008.24
2022-01-30 04:15:00,,0827.5,4.99,0.00,25.6,24.8,00.0,34.6,27.4,05.8,0000.0,0011.78,0008.62,0008.24
2022-01-30 04:16:00,,0827.5,5.01,0.00,25.6,24.8,00.0,34.6,27.3,05.6,0000.0,0011.76,0008.60,0008.22
2022-01-30 04:17:00,,0827.5,5.00,0.00,25.6,24.8,00.0,34.6,27.3,05.6,0000.0,0011.58,0008.47,0008.14
2022-01-30 04:18:00,,0827.5,5.00,0.00,25.6,24.8,00.0,34.6,27.3,05.6,0000.0,0011.47,0008.43,0008.09
2022-01-30 04:19:00,,0827.5,5.00,0.00,25.6,24.8,00.0,34.6,27.3,05.5,0000.0,0011.49,0008.39,0008.04
2022-01-30 04:20:00,,0827.5,5.01,0.00,25.5,24.8,00.0,34.6,27.3,05.4,0000.0,0011.45,0008.33,0007.98
2022-01-30 04:21:00,,0827.5,4.99,0.00,25.5,24.7,00.0,34.6,27.3,05.4,0000.0,0011.44,0008.30,0007.96
2022-01-30 04:22:00,,0827.5,5.01,0.00,25.5,24.7,00.0,34.6,27.3,05.5,0000.0,0011.34,0008.28,0007.93
2022-01-30 04:23:00,,0827.4,5.01,0.00,25.5,24.7,00.0,34.6,27.2,05.3,0000.0,0011.25,0008.27,0007.89
2022-01-30 04:24:00,,0827.4,5.01,0.00,25.4,24.6,00.0,34.5,27.2,05.3,0000.0,0011.17,0008.18,0007.81
2022-01-30 04:25:00,,0827.4,4.99,0.00,25.4,24.5,00.0,34.5,27.0,05.5,0000.0,0011.07,0008.10,0007.73
2022-01-30 04:26:00,,0827.5,4.99,0.00,25.3,24.4,00.0,34.5,27.0,05.5,0000.0,0010.96,0008.05,0007.70
2022-01-30 04:27:00,,0827.4,5.00,0.00,25.3,24.4,00.0,34.4,26.9,05.4,0000.0,0011.02,0008.08,0007.72
2022-01-30 04:28:00,,0827.4,5.01,0.00,25.2,24.4,00.0,34.4,26.9,05.3,0000.0,0011.04,0008.09,0007.74
2022-01-30 04:29:00,,0827.4,5.00,0.00,25.2,24.4,00.0,34.4,26.9,05.3,0000.0,0010.99,0008.04,0007.70
2022-01-30 04:30:00,,0827.4,5.00,0.00,25.2,24.4,00.0,34.4,27.0,05.5,0000.0,0010.99,0008.05,0007.71
2022-01-30 04:31:00,,0827.4,5.00,0.00,25.2,24.4,00.0,34.4,27.0,05.4,0000.0,0010.92,0008.03,0007.70
2022-01-30 04:32:00,,0827.4,5.00,0.00,25.2,24.5,00.0,34.3,27.0,05.4,0000.0,0010.94,0008.01,0007.66
2022-01-30 04:33:00,,0827.4,5.00,0.00,25.2,24.5,00.0,34.3,27.0,05.5,0000.0,0010.92,0007.97,0007.63
2022-01-30 04:34:00,,0827.4,5.00,0.00,25.2,24.5,00.0,34.3,27.0,05.5,0000.0,0010.79,0007.92,0007.62
2022-01-30 04:35:00,,0827.4,5.00,0.00,25.2,24.5,00.0,34.3,27.0,05.4,0000.0,0010.86,0007.96,0007.64
2022-01-30 04:36:00,,0827.4,4.99,0.00,25.2,24.5,00.0,34.3,27.0,05.4,0000.0,0010.90,0007.95,0007.62
2022-01-30 04:37:00,,0827.4,5.00,0.00,25.2,24.5,00.0,34.3,27.0,05.5,0000.0,0011.01,0007.94,0007.59
2022-01-30 04:38:00,,0827.4,5.00,0.00,25.2,24.5,00.0,34.3,27.0,05.4,0000.0,0011.41,0007.96,0007.58
2022-01-30 04:39:00,,0827.4,5.01,0.00,25.3,24.5,00.0,34.3,27.1,05.4,0000.0,0011.46,0007.99,0007.59
2022-01-30 04:40:00,,0827.4,5.00,0.00,25.3,24.5,00.0,34.3,27.1,05.5,0000.0,0011.56,0008.04,0007.64
2022-01-30 04:41:00,,0827.4,4.99,0.00,25.3,24.5,00.0,34.3,27.1,05.4,0000.0,0011.80,0008.06,0007.66
2022-01-30 04:42:00,,0827.4,5.00,0.00,25.3,24.5,00.0,34.3,27.1,05.4,0000.0,0011.86,0008.07,0007.67
2022-01-30 04:43:00,,0827.4,5.00,0.00,25.3,24.5,00.0,34.3,27.1,05.3,0000.0,0011.81,0008.06,0007.66
2022-01-30 04:44:00,,0827.4,4.99,0.00,25.3,24.5,00.0,34.2,27.1,05.5,0000.0,0011.84,0008.07,0007.67
2022-01-30 04:45:00,,0827.4,5.00,0.00,25.2,24.5,00.0,34.2,27.0,05.6,0000.0,0011.88,0008.11,0007.69
2022-01-30 04:46:00,,0827.4,5.00,0.00,25.2,24.4,00.0,34.2,27.0,05.6,0000.0,0011.84,0008.13,0007.73
2022-01-30 04:47:00,,0827.3,5.01,0.00,25.2,24.4,00.0,34.2,27.0,05.6,0000.0,0011.82,0008.16,0007.76
2022-01-30 04:48:00,,0827.4,5.00,0.00,25.2,24.4,00.0,34.2,26.9,05.7,0000.0,0011.72,0008.18,0007.78
2022-01-30 04:49:00,,0827.4,5.00,0.00,25.2,24.4,00.0,34.2,26.9,05.7,0000.0,0011.37,0008.17,0007.80
2022-01-30 04:50:00,,0827.4,5.00,0.00,25.1,24.4,00.0,34.2,26.9,05.8,0000.0,0011.64,0008.22,0007.84
2022-01-30 04:51:00,,0827.4,5.00,0.00,25.1,24.3,00.0,34.2,26.9,05.9,0000.0,0012.21,0008.24,0007.88
2022-01-30 04:52:00,,0827.4,5.00,0.00,25.1,24.3,00.0,34.1,26.9,06.0,0000.0,0012.08,0008.27,0007.91
2022-01-30 04:53:00,,0827.4,5.00,0.00,25.1,24.3,00.0,34.1,26.9,05.9,0000.0,0012.22,0008.36,0007.96
2022-01-30 04:54:00,,0827.4,5.01,0.00,25.1,24.2,00.0,34.1,26.9,06.1,0000.0,0012.39,0008.48,0008.06
2022-01-30 04:55:00,,0827.4,5.01,0.00,25.1,24.2,00.0,34.1,26.8,06.1,0000.0,0012.41,0008.56,0008.15
2022-01-30 04:56:00,,0827.3,5.00,0.00,25.1,24.2,00.0,34.1,26.8,06.0,0000.0,0012.63,0008.61,0008.19
2022-01-30 04:57:00,,0827.3,5.00,0.00,25.0,24.2,00.0,34.1,26.8,05.9,0000.0,0012.72,0008.65,0008.20
2022-01-30 04:58:00,,0827.2,5.00,0.00,25.0,24.2,00.0,34.1,26.7,05.9,0000.0,0012.75,0008.68,0008.21
2022-01-30 04:59:00,,0827.5,5.00,0.00,25.0,24.2,00.0,34.0,26.7,06.0,0000.0,0012.84,0008.72,0008.24
